This demonstration page uses our WeatherBlox Daily Observations layout. Learn more.

Left ArrowRight Arrow

Hourly Observations for February 17, 2015

Temp ( °F °C ) Dew Point ( °F °C ) Humidity (%) Winds ( mph kmh ) Pressure ( in mb ) Visibility ( mi km ) Precip ( " mm )
12:15 am 00:15 Mostly Cloudy 30 -1 27 -3 86 86 NNW 13 20 30.18 1022 3 4 0.00 0.00
12:35 am 00:35 Cloudy 30 -1 27 -3 86 86 N 12 19 30.18 1022 3 4 0.00 0.00
12:55 am 00:55 Mostly Cloudy 30 -1 27 -3 86 86 NNW 9 15 30.18 1022 10 16 0.00 0.00
1:15 am 01:15 Cloudy 28 -2 25 -4 86 86 NNW 9 15 30.21 1023 10 16 0.00 0.00
1:35 am 01:35 Cloudy 28 -2 25 -4 86 86 NNW 13 20 30.21 1023 10 16 0.00 0.00
1:55 am 01:55 Cloudy 27 -3 23 -5 86 86 NNE 13 20 30.21 1023 10 16 0.00 0.00
2:15 am 02:15 Cloudy 27 -3 23 -5 86 86 NNE 14 22 30.24 1024 10 16 0.00 0.00
2:35 am 02:35 Cloudy 27 -3 21 -6 80 80 N 12 19 30.24 1024 10 16 0.00 0.00
2:55 am 02:55 Cloudy 25 -4 21 -6 86 86 N 8 13 30.24 1024 10 16 0.00 0.00
3:15 am 03:15 Partly Cloudy 21 -6 18 -8 86 86 N 7 11 30.24 1024 10 16 0.00 0.00
3:35 am 03:35 Clear 23 -5 19 -7 86 86 NNW 5 7 30.24 1024 10 16 0.00 0.00
3:55 am 03:55 Clear 21 -6 18 -8 86 86 Calm 30.24 1024 10 16 0.00 0.00
4:15 am 04:15 Clear 21 -6 16 -9 80 80 Calm 30.24 1024 10 16 0.00 0.00
4:35 am 04:35 Clear 19 -7 16 -9 86 86 Calm 30.21 1023 10 16 0.00 0.00
4:55 am 04:55 Clear 18 -8 14 -10 86 86 WNW 3 6 30.24 1024 8 13 0.00 0.00
5:15 am 05:15 Clear 18 -8 14 -10 86 86 NW 3 6 30.24 1024 9 14 0.00 0.00
5:35 am 05:35 Clear 18 -8 14 -10 86 86 NW 3 6 30.24 1024 10 16 0.00 0.00
5:55 am 05:55 Clear 18 -8 16 -9 93 93 WSW 6 9 30.24 1024 10 16 0.00 0.00
6:15 am 06:15 Clear 19 -7 16 -9 86 86 SW 6 9 30.21 1023 10 16 0.00 0.00
6:35 am 06:35 Mostly Clear 18 -8 16 -9 93 93 SW 5 7 30.24 1024 8 13 0.00 0.00
6:55 am 06:55 Mostly Cloudy 21 -6 19 -7 93 93 WSW 5 7 30.21 1023 10 16 0.00 0.00
7:15 am 07:15 Cloudy 21 -6 19 -7 93 93 Calm 30.21 1023 10 16 0.00 0.00
7:35 am 07:35 Cloudy 23 -5 19 -7 86 86 SW 6 9 30.21 1023 10 16 0.00 0.00
7:55 am 07:55 Cloudy 23 -5 19 -7 86 86 SW 7 11 30.21 1023 9 14 0.00 0.00
8:15 am 08:15 Mostly Cloudy 23 -5 19 -7 86 86 SW 8 13 30.15 1021 10 16 0.00 0.00
8:35 am 08:35 Mostly Cloudy 25 -4 19 -7 80 80 WSW 10 17 30.15 1021 10 16 0.00 0.00
8:55 am 08:55 Cloudy 27 -3 21 -6 80 80 WSW 13 20 30.15 1021 10 16 0.00 0.00
9:15 am 09:15 Cloudy 27 -3 21 -6 80 80 W 13 20 30.15 1021 9 14 0.00 0.00
9:35 am 09:35 Cloudy 28 -2 23 -5 80 80 N 20 31 30.18 1022 9 14 0.00 0.00
9:55 am 09:55 Cloudy 25 -4 19 -7 80 80 N 28 44 30.21 1023 1 1 0.00 0.00
10:15 am 10:15 Cloudy 21 -6 16 -9 80 80 N 30 48 30.24 1024 0 0 0.00 0.00
10:35 am 10:35 Cloudy 19 -7 16 -9 86 86 N 29 46 30.27 1025 1 1 0.00 0.00
10:55 am 10:55 Mostly Cloudy 19 -7 12 -11 73 73 N 21 33 30.27 1025 3 4 0.00 0.00
11:15 am 11:15 Mostly Cloudy 19 -7 12 -11 73 73 N 23 37 30.27 1025 5 8 0.00 0.00
12:15 pm 12:15 Mostly Cloudy 21 -6 10 -12 63 63 NNW 24 39 30.30 1026 10 16 0.00 0.00
12:35 pm 12:35 Mostly Sunny 19 -7 9 -13 63 63 N 22 35 30.30 1026 10 16 0.00 0.00
12:55 pm 12:55 Sunny 21 -6 3 -16 45 45 N 23 37 30.30 1026 10 16 0.00 0.00
1:15 pm 13:15 Sunny 21 -6 9 -13 58 58 NNW 20 31 30.30 1026 10 16 0.00 0.00
1:35 pm 13:35 Sunny 21 -6 7 -14 54 54 NNW 18 30 30.27 1025 10 16 0.00 0.00
1:55 pm 13:55 Sunny 21 -6 9 -13 58 58 NW 15 24 30.27 1025 10 16 0.00 0.00
2:15 pm 14:15 Sunny 23 -5 9 -13 54 54 NNW 17 28 30.27 1025 10 16 0.00 0.00
2:35 pm 14:35 Mostly Sunny 25 -4 7 -14 46 46 NW 23 37 30.24 1024 10 16 0.00 0.00
2:55 pm 14:55 Sunny 25 -4 7 -14 46 46 NW 24 39 30.21 1023 10 16 0.00 0.00
3:15 pm 15:15 Sunny 25 -4 3 -16 39 39 NNW 26 43 30.21 1023 10 16 0.00 0.00
3:35 pm 15:35 Sunny 25 -4 5 -15 42 42 NNW 23 37 30.21 1023 10 16 0.00 0.00
3:55 pm 15:55 Sunny 25 -4 7 -14 46 46 NNW 20 31 30.21 1023 10 16 0.00 0.00
4:15 pm 16:15 Sunny 27 -3 7 -14 43 43 NNW 20 31 30.21 1023 10 16 0.00 0.00
4:35 pm 16:35 Sunny 27 -3 3 -16 36 36 NW 22 35 30.21 1023 10 16 0.00 0.00
4:55 pm 16:55 Sunny 27 -3 3 -16 36 36 NNW 21 33 30.21 1023 10 16 0.00 0.00
5:15 pm 17:15 Sunny 25 -4 3 -16 39 39 NNW 18 30 30.21 1023 10 16 0.00 0.00
5:35 pm 17:35 Sunny 25 -4 3 -16 39 39 NNW 16 26 30.21 1023 10 16 0.00 0.00
5:55 pm 17:55 Sunny 23 -5 3 -16 42 42 N 10 17 30.24 1024 10 16 0.00 0.00
6:15 pm 18:15 Clear 21 -6 3 -16 45 45 N 9 15 30.24 1024 10 16 0.00 0.00
6:35 pm 18:35 Clear 19 -7 3 -16 49 49 N 10 17 30.24 1024 10 16 0.00 0.00
6:55 pm 18:55 Clear 19 -7 3 -16 49 49 NNW 7 11 30.24 1024 10 16 0.00 0.00
7:15 pm 19:15 Clear 18 -8 3 -16 53 53 NNW 3 6 30.27 1025 10 16 0.00 0.00
7:55 pm 19:55 Clear 16 -9 5 -15 62 62 NNW 5 7 30.27 1025 10 16 0.00 0.00
8:15 pm 20:15 Clear 14 -10 3 -16 62 62 NNW 5 7 30.27 1025 10 16 0.00 0.00
8:35 pm 20:35 Clear 12 -11 3 -16 67 67 NW 5 7 30.33 1027 10 16 0.00 0.00
8:55 pm 20:55 Clear 12 -11 3 -16 67 67 NNW 6 9 30.33 1027 10 16 0.00 0.00
9:15 pm 21:15 Clear 12 -11 3 -16 67 67 WNW 6 9 30.33 1027 10 16 0.00 0.00
9:35 pm 21:35 Clear 14 -10 7 -14 73 73 NW 7 11 30.30 1026 10 16 0.00 0.00
9:55 pm 21:55 Clear 14 -10 3 -16 62 62 NW 8 13 30.30 1026 10 16 0.00 0.00
10:15 pm 22:15 Clear 16 -9 3 -16 57 57 NW 7 11 30.30 1026 10 16 0.00 0.00
10:35 pm 22:35 Clear 16 -9 3 -16 57 57 NW 8 13 30.30 1026 10 16 0.00 0.00
10:55 pm 22:55 Clear 12 -11 1 -17 62 62 W 5 7 30.33 1027 10 16 0.00 0.00
11:15 pm 23:15 Clear 12 -11 3 -16 67 67 NW 6 9 30.33 1027 10 16 0.00 0.00
11:35 pm 23:35 Clear 10 -12 1 -17 67 67 NW 6 9 30.33 1027 10 16 0.00 0.00
11:55 pm 23:55 Clear 12 -11 5 -15 73 73 NNW 8 13 30.33 1027 10 16 0.00 0.00

Powered by AerisWeather